Wind_Speed
31 31 30 31 32 34 37 39 41 44 47 48 55 63 61 60 59 56 50 41 52 50 46 44 43 46 43 43 43 43 45 43 39 31 31 34 35 35 39 39 38 36 35 40 38
27 30 32 32 32 33 33 36 39 41 42 46 52 53 66 65 65 63 58 50 53 55 52 54 49 49 51 49 49 46 48 44 37 35 37 43 42 44 39 40 37 40 41 42 40
29 31 32 34 36 37 38 39 40 39 40 42 44 53 52 63 68 68 67 66 72 64 59 57 53 53 57 56 56 55 54 47 40 43 45 48 48 46 47 46 41 45 46 44 42
28 30 32 35 37 39 41 41 42 43 43 41 43 45 49 57 59 59 61 66 68 67 65 68 66 65 65 59 59 61 61 55 49 41 53 55 55 51 45 49 35 37 43 42 43
31 33 34 36 37 39 40 42 43 45 47 48 47 45 49 51 51 52 52 61 67 72 72 71 71 66 64 58 58 55 55 52 48 44 50 50 56 50 47 45 37 41 42 42 44
35 36 38 40 41 42 44 45 47 48 48 49 50 51 52 50 50 54 53 52 55 57 61 74 75 66 61 62 61 56 58 54 53 46 49 53 55 54 46 40 38 43 40 42 41
37 39 42 43 45 46 46 47 48 50 52 54 54 55 53 51 55 57 58 58 57 55 57 63 67 66 64 62 61 63 61 61 54 52 50 47 54 50 45 44 42 41 41 40 42
42 44 46 48 49 51 53 54 55 55 55 56 57 58 56 57 57 56 59 59 60 60 61 62 64 63 63 63 60 62 63 64 60 55 52 52 54 43 43 42 43 43 42 41 45
45 47 49 50 52 54 56 57 59 60 61 61 61 61 58 61 62 62 61 60 62 63 62 63 64 65 65 62 62 59 52 57 61 60 61 56 51 45 45 44 47 46 44 41 45
49 52 53 55 57 59 61 63 63 62 62 63 64 63 63 65 66 68 68 66 64 64 65 64 65 64 63 64 52 54 62 57 56 52 60 54 47 49 50 54 50 49 45 43 41
51 53 56 60 62 63 66 67 68 69 69 69 70 68 65 68 70 72 72 73 71 68 66 66 68 66 52 52 55 58 59 57 54 55 61 58 52 52 57 58 48 46 50 40 37
56 60 64 68 70 71 73 75 77 76 74 74 74 76 74 75 73 71 75 78 76 74 70 72 72 49 54 57 53 52 52 53 50 50 54 55 51 50 55 57 49 47 43 37 30
62 67 71 75 76 77 73 70 70 72 80 67 71 76 77 75 75 69 75 78 80 79 77 75 58 57 60 56 53 48 46 47 44 45 51 44 49 44 49 53 44 43 37 35 24
71 73 72 65 63 57 55 52 50 49 61 60 57 57 63 63 67 66 69 71 77 79 77 77 65 68 61 56 54 48 45 44 40 41 47 44 53 47 43 36 36 33 33 27 24
71 63 54 51 47 47 48 45 44 43 45 45 43 37 42 46 51 59 60 64 70 73 72 72 77 71 67 55 55 51 52 44 41 43 48 50 54 42 34 32 28 25 24 26 22
54 47 43 42 43 45 46 44 43 39 36 31 36 30 28 31 35 39 46 52 63 65 70 72 74 72 65 61 57 50 49 42 45 44 50 42 43 40 24 15 20 22 26 22 21
42 37 36 37 43 43 33 25 20 23 26 22 24 29 30 26 34 32 34 38 48 56 68 69 75 74 69 65 59 58 55 50 49 49 48 39 39 30 19 15 19 22 19 17 19
35 32 32 37 38 19 14 12 11 12 15 21 31 27 23 20 30 26 31 24 33 46 56 63 71 74 71 69 63 59 55 53 51 47 38 33 33 8 19 17 17 15 14 18 18
31 27 33 37 29 20 12 11 12 11 14 13 15 21 19 19 27 24 26 23 29 43 57 49 65 66 72 66 64 60 55 46 46 44 35 25 22 19 17 14 9 12 10 13 19
23 30 35 35 26 20 8 9 11 15 17 15 12 15 20 18 23 19 29 26 30 39 58 57 64 55 67 64 64 58 46 49 51 47 44 30 18 24 15 12 12 11 12 16 19
27 30 35 32 22 15 10 12 16 16 15 14 13 9 12 18 24 25 36 27 27 41 52 59 65 54 53 69 64 61 56 50 47 45 36 27 16 18 15 17 11 10 17 18 22
33 33 33 31 23 14 7 7 9 12 15 13 11 9 7 12 17 24 30 33 28 32 47 63 62 50 47 62 61 56 53 51 48 50 41 22 18 21 20 15 12 15 15 18 22
32 34 34 28 26 17 19 13 14 18 13 10 8 10 7 5 7 13 24 33 25 20 39 62 60 51 63 42 61 61 55 49 50 44 35 24 18 20 15 19 17 17 15 16 15
28 33 39 37 27 23 17 16 18 20 12 12 7 7 3 2 5 2 14 28 40 22 37 54 63 56 37 49 53 61 56 55 50 50 39 28 21 20 21 23 20 18 15 14 15
29 32 36 37 38 32 24 16 15 15 14 8 9 4 3 5 6 4 8 23 29 33 24 43 68 42 46 59 62 60 58 58 54 51 42 34 25 23 27 27 25 23 20 15 14
31 31 34 35 34 34 30 28 21 16 15 11 9 6 4 4 8 16 11 9 10 27 21 34 55 48 47 57 60 62 60 56 47 48 37 37 27 31 32 35 31 25 20 17 17
29 29 31 32 32 30 29 30 24 25 21 11 9 12 7 6 9 18 20 11 12 15 28 27 36 62 43 46 54 57 59 51 45 42 33 30 34 35 35 35 29 24 23 18 16
Wind_Direction
264 263 258 255 250 248 247 248 250 249 246 244 241 235 235 238 239 236 229 226 235 233 234 236 234 237 234 239 244 247 251 250 244 246 251 249 254 264 275 278 282 294 295 290 296
265 265 265 265 264 262 259 252 247 249 249 250 246 241 241 241 237 242 233 226 239 240 243 244 240 241 243 243 246 248 256 259 248 239 242 251 248 261 262 267 273 286 290 287 293
264 262 262 262 264 265 265 265 262 257 254 253 251 243 243 241 241 245 243 232 244 244 244 246 247 247 246 246 247 254 253 266 256 246 248 246 251 262 263 263 264 272 277 284 289
267 265 265 266 265 265 266 264 263 263 260 256 253 253 247 241 243 244 243 243 243 239 245 246 249 253 254 249 254 257 254 257 256 253 249 249 250 256 263 271 274 275 277 275 280
274 272 271 269 267 266 266 266 265 263 263 263 258 250 246 248 247 252 246 241 243 244 245 251 254 256 259 257 256 254 253 257 255 247 244 251 248 259 258 267 272 274 273 276 281
280 277 274 272 269 267 266 265 264 263 262 260 259 257 251 246 246 249 248 244 242 244 245 247 253 256 257 257 256 257 258 257 254 247 246 250 255 259 259 263 264 271 276 279 285
290 287 284 280 275 272 270 269 268 266 263 261 259 258 258 255 249 246 248 247 246 241 240 242 247 251 255 255 256 257 257 262 254 255 253 258 255 254 263 260 266 270 276 281 282
291 289 288 286 283 279 277 276 273 270 266 263 260 257 256 253 253 250 247 247 247 245 242 241 244 248 250 254 256 257 258 259 263 264 261 260 259 266 267 264 267 273 277 279 280
289 287 283 280 277 274 273 272 272 270 268 266 263 260 257 253 250 249 249 246 244 244 244 243 242 243 247 252 252 256 260 259 259 262 266 260 267 267 268 264 266 274 281 281 282
288 286 282 280 278 277 276 272 270 267 266 265 263 261 258 254 251 249 247 247 245 242 242 242 243 240 244 249 256 257 258 261 262 263 269 272 264 268 270 270 266 274 278 279 282
292 289 287 286 284 281 279 276 274 272 271 268 265 261 261 255 252 248 246 244 244 243 243 242 242 243 250 252 255 256 260 263 268 267 268 275 270 266 271 266 265 270 272 278 282
301 299 296 292 289 286 284 282 279 275 271 270 268 265 262 258 256 250 246 243 240 241 240 238 240 253 244 246 250 252 253 256 263 267 270 269 269 270 270 270 267 267 270 270 275
303 301 301 299 297 292 290 287 283 280 273 270 269 266 262 259 256 250 245 244 241 238 238 240 250 244 243 243 246 248 256 255 261 264 270 269 269 265 263 265 269 266 267 263 256
311 309 306 303 297 295 291 289 286 283 279 276 268 263 262 261 257 250 246 243 242 239 234 234 236 236 235 236 238 243 246 249 258 261 261 270 273 264 264 264 262 264 260 253 237
314 311 308 304 300 296 293 289 286 283 285 279 279 271 263 257 255 252 246 240 239 238 231 233 233 230 232 239 234 241 245 250 253 253 262 264 267 270 261 254 260 260 239 228 221
317 316 313 309 306 302 297 292 286 282 280 268 269 263 255 250 244 243 244 237 234 232 231 227 225 226 232 231 232 237 243 247 250 249 256 263 261 265 258 242 240 223 218 222 220
323 323 319 318 320 316 304 297 286 276 264 261 261 257 249 255 251 242 239 238 229 226 224 224 220 219 221 224 224 228 233 238 240 244 255 266 273 288 233 205 213 213 219 221 226
331 331 332 330 332 332 346 354 344 333 307 267 242 249 244 246 251 244 237 238 231 222 217 218 212 215 218 220 224 226 228 231 237 243 259 267 266 195 193 206 219 207 218 228 238
340 342 339 333 331 319 322 344 350 348 343 330 285 252 245 248 254 241 229 222 215 209 212 213 209 213 214 214 218 220 223 226 234 242 248 259 265 193 220 205 193 200 178 214 230
348 347 344 339 331 333 296 334 343 343 344 345 320 284 238 241 249 239 218 205 218 219 203 195 201 202 207 211 215 218 222 220 228 233 243 244 259 186 213 197 207 202 198 216 220
353 348 350 350 341 339 326 326 332 332 336 335 338 289 258 253 236 235 223 196 193 220 210 198 202 194 203 204 209 209 210 215 223 232 240 237 225 190 213 210 203 175 197 210 218
358 352 350 0 354 351 359 346 332 344 336 329 336 300 299 255 246 232 234 203 187 206 212 200 200 194 201 196 202 209 212 215 220 223 225 227 203 200 218 218 205 185 199 217 234
14 12 4 7 10 2 359 9 8 356 351 345 342 344 303 250 256 240 239 215 206 200 208 203 203 196 195 196 202 204 206 213 221 226 225 215 191 207 218 210 198 202 207 220 230
15 15 19 20 15 11 4 351 347 351 7 7 8 17 3 218 240 217 245 234 224 178 200 206 197 195 195 198 195 202 203 212 214 220 213 206 192 193 204 201 194 199 214 220 235
12 9 11 15 17 16 4 349 341 351 356 4 21 327 308 203 184 150 214 241 236 220 192 207 198 191 178 189 196 196 204 211 210 216 210 213 193 196 191 205 200 203 211 224 237
1 358 0 5 7 10 8 9 2 349 358 360 349 325 310 273 206 174 157 214 187 209 189 202 200 187 184 191 197 200 200 209 208 216 209 216 191 195 191 197 201 205 206 230 233
8 1 355 358 1 3 3 9 3 3 359 347 331 315 313 264 229 197 218 194 203 203 204 204 193 193 183 186 196 203 205 211 209 213 206 206 191 193 188 193 192 193 209 218 224
Height
5803 5804 5804 5806 5806 5807 5808 5807 5809 5810 5811 5813 5816 5819 5823 5826 5830 5832 5838 5839 5834 5837 5840 5843 5847 5850 5853 5856 5858 5859 5857 5860 5866 5872 5874 5869 5869 5865 5863 5863 5863 5862 5863 5858 5858
5798 5797 5797 5798 5798 5799 5800 5801 5802 5802 5802 5804 5806 5808 5812 5815 5818 5821 5830 5828 5825 5827 5832 5835 5840 5842 5844 5848 5848 5851 5852 5854 5864 5863 5864 5861 5862 5857 5858 5858 5860 5858 5857 5853 5852
5793 5792 5791 5791 5790 5790 5790 5790 5791 5792 5794 5794 5795 5798 5801 5804 5807 5812 5817 5818 5816 5818 5823 5824 5829 5832 5834 5838 5839 5845 5842 5851 5854 5856 5855 5853 5853 5853 5851 5851 5856 5855 5851 5848 5846
5785 5784 5784 5783 5782 5781 5780 5779 5780 5780 5781 5783 5785 5787 5789 5792 5794 5797 5803 5807 5809 5812 5811 5813 5818 5820 5824 5828 5832 5832 5837 5838 5843 5848 5842 5841 5846 5842 5847 5844 5853 5846 5842 5843 5842
5776 5774 5773 5772 5771 5770 5769 5769 5769 5770 5770 5770 5773 5776 5778 5780 5785 5789 5791 5796 5799 5802 5803 5801 5805 5811 5809 5816 5821 5820 5823 5827 5831 5833 5830 5831 5832 5837 5838 5840 5845 5837 5836 5835 5833
5767 5765 5763 5762 5761 5760 5759 5759 5759 5759 5759 5759 5759 5760 5764 5769 5776 5774 5777 5783 5785 5789 5791 5792 5794 5800 5802 5802 5806 5814 5811 5814 5816 5821 5823 5822 5824 5828 5833 5836 5835 5828 5829 5828 5825
5757 5754 5752 5750 5748 5746 5745 5745 5745 5745 5745 5745 5745 5747 5751 5758 5759 5762 5764 5767 5772 5777 5781 5783 5785 5787 5793 5794 5797 5797 5799 5801 5806 5811 5815 5819 5810 5818 5824 5826 5824 5822 5820 5820 5819
5745 5742 5739 5736 5733 5731 5730 5729 5729 5729 5729 5729 5731 5733 5738 5742 5743 5747 5748 5753 5757 5761 5766 5771 5773 5776 5778 5782 5784 5786 5789 5789 5797 5801 5806 5808 5801 5814 5815 5815 5814 5812 5813 5813 5810
5733 5729 5726 5723 5720 5717 5715 5713 5712 5711 5711 5712 5714 5716 5722 5724 5727 5730 5733 5738 5741 5746 5752 5756 5759 5765 5768 5770 5773 5776 5778 5782 5787 5791 5791 5796 5796 5806 5806 5806 5804 5804 5804 5803 5801
5721 5716 5711 5706 5702 5698 5694 5693 5692 5692 5692 5692 5694 5699 5702 5703 5707 5710 5716 5719 5724 5731 5736 5742 5743 5750 5756 5759 5759 5770 5767 5775 5779 5785 5779 5784 5787 5792 5795 5792 5793 5794 5794 5795 5795
5707 5700 5694 5687 5681 5678 5674 5671 5670 5669 5668 5670 5671 5675 5679 5680 5685 5690 5696 5701 5706 5714 5720 5727 5727 5733 5750 5755 5760 5763 5764 5767 5772 5776 5772 5771 5773 5779 5780 5777 5783 5784 5783 5788 5788
5687 5679 5672 5664 5658 5653 5648 5643 5640 5642 5648 5643 5642 5649 5651 5651 5666 5670 5673 5680 5688 5695 5702 5703 5708 5736 5744 5742 5749 5753 5756 5758 5765 5766 5761 5760 5762 5767 5767 5767 5771 5773 5777 5779 5780
5671 5661 5650 5640 5632 5627 5621 5617 5614 5612 5615 5621 5616 5620 5623 5628 5638 5647 5648 5654 5665 5675 5681 5685 5715 5726 5726 5734 5738 5744 5747 5753 5758 5758 5751 5753 5747 5755 5757 5756 5764 5765 5769 5770 5773
5650 5639 5628 5619 5612 5605 5601 5597 5594 5593 5589 5594 5595 5596 5599 5604 5609 5620 5625 5635 5643 5654 5662 5671 5701 5701 5711 5721 5728 5734 5740 5745 5749 5747 5744 5748 5735 5744 5748 5752 5754 5758 5760 5764 5766
5631 5620 5610 5601 5596 5591 5586 5583 5581 5579 5578 5574 5574 5580 5584 5588 5592 5593 5604 5612 5625 5631 5638 5672 5673 5684 5695 5713 5718 5725 5730 5738 5742 5738 5735 5736 5729 5735 5739 5744 5747 5750 5753 5757 5759
5615 5605 5598 5591 5584 5578 5572 5569 5567 5568 5567 5567 5564 5570 5572 5572 5575 5580 5585 5593 5601 5610 5620 5648 5656 5667 5691 5697 5709 5718 5723 5730 5731 5729 5721 5728 5727 5728 5738 5735 5737 5741 5746 5751 5754
5603 5596 5589 5582 5575 5565 5558 5556 5557 5557 5556 5559 5557 5557 5561 5564 5565 5570 5573 5577 5586 5593 5604 5624 5634 5652 5668 5681 5694 5703 5712 5717 5720 5717 5715 5724 5723 5728 5728 5730 5733 5737 5743 5747 5750
5595 5589 5582 5576 5569 5561 5557 5555 5553 5551 5548 5546 5547 5548 5552 5556 5555 5559 5563 5567 5574 5582 5598 5607 5619 5641 5655 5666 5682 5691 5700 5707 5710 5715 5719 5717 5717 5727 5725 5726 5731 5735 5738 5742 5746
5590 5584 5578 5570 5564 5560 5557 5554 5552 5550 5546 5543 5539 5541 5547 5550 5550 5552 5554 5558 5565 5568 5584 5599 5611 5630 5640 5659 5669 5681 5688 5706 5707 5708 5712 5715 5719 5726 5725 5727 5730 5732 5735 5739 5742
5587 5581 5574 5565 5558 5554 5553 5552 5550 5547 5544 5540 5537 5536 5538 5543 5543 5545 5546 5552 5556 5558 5566 5583 5596 5612 5633 5646 5657 5671 5690 5692 5696 5701 5703 5712 5718 5721 5722 5725 5727 5730 5733 5736 5740
5586 5579 5571 5561 5555 5552 5550 5549 5548 5544 5541 5538 5536 5534 5534 5534 5536 5537 5540 5546 5550 5554 5564 5578 5587 5605 5613 5624 5648 5658 5668 5680 5691 5697 5700 5707 5714 5718 5717 5721 5725 5728 5731 5734 5737
5587 5579 5569 5561 5555 5551 5548 5546 5544 5541 5538 5535 5533 5532 5531 5531 5532 5534 5536 5540 5545 5550 5557 5568 5580 5594 5606 5630 5640 5653 5665 5674 5681 5685 5694 5704 5712 5713 5716 5719 5722 5724 5729 5733 5735
5587 5578 5569 5562 5556 5551 5548 5545 5543 5539 5536 5534 5532 5530 5529 5530 5532 5534 5536 5537 5539 5546 5551 5561 5576 5591 5603 5616 5626 5639 5655 5667 5674 5679 5690 5699 5707 5710 5712 5716 5720 5723 5728 5731 5734
5589 5582 5574 5565 5559 5554 5550 5546 5542 5538 5535 5533 5531 5530 5529 5529 5531 5533 5534 5534 5534 5543 5548 5554 5569 5582 5602 5615 5627 5636 5647 5654 5664 5670 5685 5694 5701 5706 5710 5713 5717 5721 5725 5729 5731
5591 5583 5576 5570 5562 5557 5551 5546 5542 5539 5535 5533 5531 5529 5528 5528 5528 5530 5532 5532 5534 5539 5545 5550 5566 5583 5586 5595 5610 5620 5635 5642 5653 5663 5678 5688 5696 5701 5707 5710 5712 5717 5722 5726 5729
5592 5585 5578 5572 5566 5558 5553 5548 5543 5539 5536 5533 5530 5528 5526 5526 5527 5528 5530 5531 5532 5538 5541 5548 5562 5575 5585 5595 5605 5617 5627 5637 5651 5657 5674 5680 5692 5695 5698 5705 5710 5716 5721 5725 5727
5594 5586 5579 5573 5567 5561 5555 5550 5545 5540 5535 5531 5529 5526 5525 5524 5524 5526 5527 5530 5533 5537 5541 5548 5558 5576 5585 5592 5598 5613 5623 5634 5645 5652 5669 5679 5687 5689 5697 5702 5708 5714 5718 5723 5725